When you browse on this site, cookies collect data to enhance your experience and personalize the content and advertising you see.
Visit our Privacy Policy to learn more. By continuing to use the site, you agree to this use of cookies and data.

Previsão horária em Abbotsford

Hoje, 22 Setembro, Terça-feira

Tempo Temperatura Precipitação Vento Pressão Humidade
00:00 +14°C° 0.1 mm 1 m/s 754 mmHg 93%
01:00 +14°C° 0.1 mm 1 m/s 754 mmHg 93%
02:00 +14°C° 0.1 mm 1 m/s 754 mmHg 94%
03:00 +13°C° 0.1 mm 0 m/s 754 mmHg 94%
04:00 +13°C° 0.1 mm 0 m/s 754 mmHg 94%
05:00 +13°C° 0.2 mm 0 m/s 754 mmHg 94%
06:00 +13°C° 0.2 mm 0 m/s 755 mmHg 95%
07:00 +13°C° 0.2 mm 0 m/s 755 mmHg 95%
08:00 +15°C° 0.1 mm 0 m/s 754 mmHg 91%
09:00 +16°C° 0.1 mm 0 m/s 754 mmHg 86%
10:00 +17°C° 0.1 mm 0 m/s 754 mmHg 81%
11:00 +20°C° 0.2 mm 1 m/s 754 mmHg 76%
12:00 +21°C° 0.2 mm 1 m/s 754 mmHg 72%
13:00 +21°C° 0.2 mm 1 m/s 753 mmHg 67%
14:00 +21°C° 0.1 mm 1 m/s 753 mmHg 68%
15:00 +21°C° 0.1 mm 1 m/s 753 mmHg 68%
16:00 +21°C° 0.1 mm 1 m/s 752 mmHg 68%
17:00 +20°C° 0.1 mm 1 m/s 752 mmHg 74%
18:00 +18°C° 0.1 mm 1 m/s 753 mmHg 80%
19:00 +16°C° 0.1 mm 1 m/s 753 mmHg 86%
20:00 +15°C° 0 mm 1 m/s 752 mmHg 87%
21:00 +15°C° 0 mm 1 m/s 752 mmHg 87%
22:00 +15°C° 0 mm 1 m/s 752 mmHg 87%
23:00 +15°C° 0 mm 1 m/s 752 mmHg 86%

Amanhã, 23 Setembro, Quarta-feira

Tempo Temperatura Precipitação Vento Pressão Humidade
00:00 +15°C° 0 mm 1 m/s 752 mmHg 85%
01:00 +15°C° 0 mm 1 m/s 751 mmHg 84%
02:00 +15°C° 0.3 mm 1 m/s 751 mmHg 87%
03:00 +15°C° 0.3 mm 2 m/s 751 mmHg 89%
04:00 +15°C° 0.3 mm 2 m/s 751 mmHg 92%
05:00 +14°C° 1.7 mm 2 m/s 750 mmHg 93%
06:00 +14°C° 1.7 mm 2 m/s 750 mmHg 95%
07:00 +14°C° 1.7 mm 2 m/s 750 mmHg 97%
08:00 +14°C° 2.3 mm 2 m/s 749 mmHg 97%
09:00 +14°C° 2.3 mm 2 m/s 749 mmHg 97%
10:00 +14°C° 2.3 mm 1 m/s 748 mmHg 97%
11:00 +14°C° 3.8 mm 1 m/s 748 mmHg 97%
12:00 +14°C° 3.8 mm 1 m/s 747 mmHg 98%
13:00 +15°C° 3.8 mm 1 m/s 747 mmHg 98%
14:00 +15°C° 2.4 mm 1 m/s 747 mmHg 98%
15:00 +15°C° 2.4 mm 1 m/s 746 mmHg 98%
16:00 +16°C° 2.4 mm 1 m/s 746 mmHg 97%
17:00 +15°C° 1.3 mm 2 m/s 745 mmHg 97%
18:00 +15°C° 1.3 mm 2 m/s 745 mmHg 97%
19:00 +15°C° 1.3 mm 2 m/s 745 mmHg 97%
20:00 +15°C° 2.1 mm 2 m/s 745 mmHg 97%
21:00 +14°C° 2.1 mm 3 m/s 745 mmHg 97%
22:00 +14°C° 2.1 mm 3 m/s 745 mmHg 97%
23:00 +14°C° 1.3 mm 2 m/s 746 mmHg 97%

Depois de amanhã, 24 Setembro, Quinta-feira

Tempo Temperatura Precipitação Vento Pressão Humidade
00:00 +14°C° 1.3 mm 2 m/s 746 mmHg 97%
01:00 +13°C° 1.3 mm 1 m/s 746 mmHg 96%
02:00 +13°C° 1.1 mm 1 m/s 746 mmHg 97%
03:00 +13°C° 1.1 mm 1 m/s 747 mmHg 97%
04:00 +14°C° 1.1 mm 2 m/s 747 mmHg 97%
05:00 +14°C° 1 mm 2 m/s 747 mmHg 96%
06:00 +14°C° 1 mm 2 m/s 748 mmHg 96%
07:00 +14°C° 1 mm 2 m/s 748 mmHg 96%
08:00 +14°C° 1.2 mm 2 m/s 748 mmHg 96%
09:00 +13°C° 1.2 mm 3 m/s 748 mmHg 95%
10:00 +13°C° 1.2 mm 3 m/s 748 mmHg 94%
11:00 +14°C° 1.6 mm 3 m/s 748 mmHg 93%
12:00 +16°C° 1.6 mm 2 m/s 749 mmHg 92%
13:00 +16°C° 1.6 mm 2 m/s 749 mmHg 91%
14:00 +16°C° 1.7 mm 2 m/s 748 mmHg 91%
15:00 +16°C° 1.7 mm 1 m/s 748 mmHg 92%
16:00 +15°C° 1.7 mm 1 m/s 748 mmHg 92%
17:00 +15°C° 1.9 mm 1 m/s 748 mmHg 93%
18:00 +14°C° 1.9 mm 1 m/s 748 mmHg 95%
19:00 +14°C° 1.9 mm 1 m/s 748 mmHg 96%
20:00 +13°C° 1.7 mm 1 m/s 748 mmHg 96%
21:00 +13°C° 1.7 mm 1 m/s 747 mmHg 97%
22:00 +13°C° 1.7 mm 1 m/s 747 mmHg 97%
23:00 +13°C° 2.2 mm 1 m/s 747 mmHg 97%

25 Setembro, Sexta-feira

Tempo Temperatura Precipitação Vento Pressão Humidade
00:00 +13°C° 2.2 mm 2 m/s 747 mmHg 96%
01:00 +13°C° 2.2 mm 2 m/s 747 mmHg 96%
02:00 +12°C° 1.5 mm 2 m/s 748 mmHg 96%
03:00 +11°C° 1.5 mm 3 m/s 748 mmHg 95%
04:00 +11°C° 1.5 mm 3 m/s 749 mmHg 95%
05:00 +12°C° 0.4 mm 2 m/s 749 mmHg 95%
06:00 +10°C° 0.4 mm 2 m/s 750 mmHg 95%
07:00 +10°C° 0.4 mm 2 m/s 750 mmHg 96%
08:00 +12°C° 0.6 mm 2 m/s 751 mmHg 93%
09:00 +13°C° 0.6 mm 2 m/s 751 mmHg 91%
10:00 +15°C° 0.6 mm 2 m/s 752 mmHg 88%
11:00 +15°C° 0.7 mm 2 m/s 752 mmHg 88%
12:00 +15°C° 0.7 mm 1 m/s 752 mmHg 88%
13:00 +15°C° 0.7 mm 1 m/s 752 mmHg 87%
14:00 +15°C° 0.2 mm 1 m/s 752 mmHg 89%
15:00 +14°C° 0.2 mm 1 m/s 752 mmHg 90%
16:00 +14°C° 0.2 mm 1 m/s 752 mmHg 91%
17:00 +13°C° 0.1 mm 1 m/s 753 mmHg 92%
18:00 +13°C° 0.1 mm 1 m/s 753 mmHg 92%
19:00 +12°C° 0.1 mm 1 m/s 753 mmHg 93%
20:00 +12°C° 0.1 mm 1 m/s 754 mmHg 92%
21:00 +12°C° 0.1 mm 1 m/s 754 mmHg 91%
22:00 +12°C° 0.1 mm 1 m/s 755 mmHg 91%
23:00 +12°C° 0 mm 1 m/s 755 mmHg 91%

26 Setembro, Sábado

Tempo Temperatura Precipitação Vento Pressão Humidade
00:00 +12°C° 0 mm 1 m/s 755 mmHg 91%
01:00 +11°C° 0 mm 1 m/s 755 mmHg 91%
02:00 +11°C° 0 mm 1 m/s 754 mmHg 91%
03:00 +11°C° 0 mm 1 m/s 754 mmHg 91%
04:00 +11°C° 0 mm 1 m/s 754 mmHg 92%
05:00 +11°C° 1.1 mm 1 m/s 754 mmHg 93%
06:00 +12°C° 1.1 mm 1 m/s 754 mmHg 95%
07:00 +12°C° 1.1 mm 2 m/s 753 mmHg 97%
08:00 +12°C° 2.2 mm 1 m/s 753 mmHg 97%
09:00 +12°C° 2.2 mm 1 m/s 752 mmHg 97%
10:00 +13°C° 2.2 mm 1 m/s 752 mmHg 97%
11:00 +13°C° 5.4 mm 1 m/s 751 mmHg 97%
12:00 +13°C° 5.4 mm 1 m/s 750 mmHg 97%
13:00 +14°C° 5.4 mm 2 m/s 750 mmHg 97%
14:00 +14°C° 5.1 mm 2 m/s 750 mmHg 98%
15:00 +14°C° 5.1 mm 2 m/s 750 mmHg 98%
16:00 +15°C° 5.1 mm 2 m/s 750 mmHg 98%
17:00 +15°C° 0.5 mm 2 m/s 751 mmHg 98%
18:00 +16°C° 0.5 mm 3 m/s 751 mmHg 97%
19:00 +17°C° 0.5 mm 3 m/s 752 mmHg 97%
20:00 +16°C° 0.5 mm 3 m/s 752 mmHg 97%
21:00 +16°C° 0.5 mm 3 m/s 753 mmHg 97%
22:00 +16°C° 0.5 mm 2 m/s 753 mmHg 97%
23:00 +16°C° 1.4 mm 2 m/s 753 mmHg 97%

27 Setembro, Domingo

Tempo Temperatura Precipitação Vento Pressão Humidade
00:00 +16°C° 1.4 mm 2 m/s 754 mmHg 98%
01:00 +16°C° 1.4 mm 2 m/s 754 mmHg 98%
02:00 +17°C° 1.4 mm 2 m/s 754 mmHg 98%
03:00 +17°C° 1.4 mm 2 m/s 754 mmHg 98%
04:00 +17°C° 1.4 mm 2 m/s 754 mmHg 98%
05:00 +17°C° 3.1 mm 2 m/s 754 mmHg 98%
06:00 +17°C° 3.1 mm 2 m/s 754 mmHg 99%
07:00 +18°C° 3.1 mm 1 m/s 754 mmHg 99%
08:00 +16°C° 3.5 mm 1 m/s 754 mmHg 99%
09:00 +16°C° 3.5 mm 1 m/s 754 mmHg 99%
10:00 +16°C° 3.5 mm 1 m/s 755 mmHg 99%
11:00 +16°C° 1.3 mm 1 m/s 755 mmHg 99%
12:00 +16°C° 1.3 mm 1 m/s 755 mmHg 99%
13:00 +15°C° 1.3 mm 1 m/s 756 mmHg 99%
14:00 +15°C° 1.1 mm 1 m/s 756 mmHg 99%
15:00 +15°C° 1.1 mm 1 m/s 756 mmHg 99%
16:00 +15°C° 1.1 mm 1 m/s 756 mmHg 99%
17:00 +15°C° 0.8 mm 1 m/s 756 mmHg 99%
18:00 +15°C° 0.8 mm 1 m/s 756 mmHg 99%
19:00 +14°C° 0.8 mm 0 m/s 756 mmHg 99%
20:00 +14°C° 1.5 mm 0 m/s 757 mmHg 99%
21:00 +14°C° 1.5 mm 0 m/s 757 mmHg 99%
22:00 +14°C° 1.5 mm 0 m/s 757 mmHg 99%
23:00 +14°C° 0.4 mm 0 m/s 758 mmHg 99%
Mostrar mais